Location: Dal�� Lhota
(48.7500°N, 14.0167°E)
Time: 01:50:31
(UTC+00:00)

Cosmos 2278 Rocket - Pass Details

Date: 24 September 2020
Orbit: 841 x 845 km, 71.0° (Epoch: 29 October)

Event Time Altitude Azimuth Distance (km) Brightness Sun altitude
Rises 18:01:25 0° 155° (SSE) 3,384 5.0 -11.4°
Enters shadow 18:03:39 - 143° (SE) 2,726 4.4 -11.8°
Exits shadow 18:09:37 15° 79° (E) 2,146 3.8 -12.7°
Drops below altitude 10° 18:11:26 10° 61° (ENE) 2,466 4.2 -13.0°
Sets 18:14:47 0° 42° (NE) 3,407 5.1 -13.5°
